EW9200 Weather Reports


Display with metric or nautical units.
time (UTC)temp
F
wind
direction
speed
MPH
gust
MPH
rain 1hr
in
rain 24hr
in
rain mn
in
humidity
%
barometer
mb
20260505125028 44 347 0.0 6.0 0.06 0.26 0.06 88 1008.6
20260505124549 44 347 1.0 6.0 0.06 0.26 0.06 87 1008.7
20260505124028 44 8 2.0 8.0 0.05 0.25 0.05 86 1008.7
20260505123528 44 318 3.0 8.0 0.05 0.25 0.05 85 1008.8
20260505123046 44 359 2.0 6.0 0.05 0.25 0.05 85 1008.7
20260505122530 45 312 2.0 8.0 0.05 0.25 0.05 84 1008.5
20260505122029 45 354 3.0 8.0 0.04 0.24 0.04 82 1008.3
20260505121537 46 293 3.0 7.0 0.04 0.24 0.04 80 1008.6
20260505121029 47 9 1.0 10.0 0.03 0.23 0.03 79 1008.7
20260505120529 48 4 3.0 10.0 0.02 0.22 0.02 76 1008.9
20260505120059 49 20 4.0 6.0 0.01 0.21 0.01 73 1008.7
20260505115529 50 358 3.0 7.0 0.00 0.20 0.00 68 1008.6
20260505115032 50 330 2.0 7.0 0.00 0.20 0.00 67 1008.5
20260505114544 51 34 1.0 7.0 0.00 0.20 0.00 65 1008.3
20260505114030 51 333 2.0 7.0 0.00 0.20 0.00 64 1008.0
20260505113528 51 342 3.0 7.0 0.00 0.20 0.00 63 1007.7
20260505113049 51 316 2.0 5.0 0.00 0.20 0.00 64 1007.6
20260505112529 51 334 1.0 4.0 0.00 0.20 0.00 65 1007.4
20260505112029 51 356 1.0 5.0 0.00 0.20 0.00 63 1007.3
20260505111537 51 12 1.0 5.0 0.00 0.20 0.00 64 1007.2
20260505111029 51 14 1.0 4.0 0.00 0.20 0.00 64 1007.1
20260505110528 51 314 0.0 2.0 0.00 0.20 0.00 67 1006.8
20260505102030 51 0 0.0 2.0 0.00 0.20 0.00 73 1006.7
20260505101536 51 0 0.0 2.0 0.00 0.20 0.00 72 1006.4
20260505101029 51 0 0.0 2.0 0.00 0.20 0.00 73 1006.6
20260505100534 51 0 0.0 6.0 0.00 0.20 0.00 73 1006.2
20260505100036 51 273 1.0 6.0 0.00 0.20 0.00 73 1006.4
20260505095528 51 0 0.0 1.0 0.00 0.20 0.00 73 1005.8
20260505095030 51 0 0.0 1.0 0.00 0.20 0.00 73 1005.7
20260505094542 51 0 0.0 2.0 0.00 0.20 0.00 72 1005.9
20260505094029 51 329 0.0 2.0 0.00 0.20 0.00 71 1005.7
20260505093530 52 0 0.0 2.0 0.00 0.20 0.00 71 1005.8
20260505093048 52 270 0.0 1.0 0.00 0.20 0.00 70 1005.9
20260505092530 52 0 0.0 2.0 0.00 0.20 0.00 70 1006.0
20260505092029 52 0 0.0 2.0 0.00 0.20 0.00 68 1005.9
20260505091541 52 0 0.0 2.0 0.00 0.20 0.00 68 1006.1
20260505091028 52 0 0.0 1.0 0.00 0.20 0.00 68 1006.2
20260505090529 52 0 0.0 1.0 0.00 0.20 0.00 68 1005.9
20260505090043 53 0 0.0 1.0 0.00 0.20 0.00 67 1005.9
20260505085530 53 0 0.0 1.0 0.00 0.20 0.00 66 1005.5
20260505085029 53 0 0.0 2.0 0.00 0.20 0.00 65 1005.2
20260505084547 53 0 0.0 2.0 0.00 0.20 0.00 64 1005.2
20260505084029 53 0 0.0 4.0 0.00 0.20 0.00 64 1005.4
20260505083529 53 224 0.0 4.0 0.00 0.20 0.00 65 1005.1
20260505083049 53 293 0.0 3.0 0.00 0.20 0.00 65 1004.6
20260505082529 53 254 0.0 1.0 0.00 0.20 0.00 65 1004.6
20260505082030 53 0 0.0 2.0 0.00 0.20 0.00 64 1004.2
20260505081538 54 309 0.0 4.0 0.00 0.20 0.00 64 1004.2
20260505081030 54 0 0.0 4.0 0.00 0.20 0.00 64 1003.8
20260505080530 54 340 1.0 4.0 0.00 0.20 0.00 62 1003.7
20260505080047 54 349 1.0 3.0 0.00 0.20 0.00 62 1003.7
20260505075528 54 330 1.0 3.0 0.00 0.20 0.00 62 1003.7
20260505075029 55 310 0.0 4.0 0.00 0.20 0.00 62 1003.6
20260505074540 55 297 1.0 4.0 0.00 0.20 0.00 61 1003.5
20260505074029 55 0 1.0 5.0 0.00 0.20 0.00 61 1003.4
20260505073530 55 27 1.0 5.0 0.00 0.20 0.00 60 1003.5
20260505073040 55 6 1.0 4.0 0.00 0.20 0.00 59 1003.5
20260505072530 55 34 1.0 6.0 0.00 0.20 0.00 60 1003.4
20260505072029 55 15 0.0 6.0 0.00 0.20 0.00 60 1003.3
20260505071536 55 345 0.0 3.0 0.00 0.20 0.00 59 1003.2
20260505071029 56 40 0.0 4.0 0.00 0.20 0.00 60 1003.0
20260505070531 56 332 1.0 4.0 0.00 0.20 0.00 59 1002.9
20260505070050 55 285 1.0 4.0 0.00 0.20 0.00 60 1002.8
20260505065529 55 2 1.0 5.0 0.00 0.20 0.00 61 1002.8
20260505065028 56 343 1.0 5.0 0.00 0.20 0.00 60 1002.7
20260505064548 56 333 2.0 5.0 0.00 0.20 0.00 60 1002.6
20260505064028 56 327 2.0 5.0 0.00 0.20 0.00 60 1002.7
20260505063528 55 46 1.0 5.0 0.00 0.20 0.00 60 1002.5
20260505063044 55 311 1.0 3.0 0.00 0.20 0.00 61 1002.5
20260505062530 55 319 1.0 3.0 0.00 0.20 0.00 61 1002.4
20260505062028 55 30 1.0 3.0 0.00 0.20 0.00 61 1002.4
20260505061538 56 310 1.0 2.0 0.00 0.20 0.00 61 1002.4
20260505061029 56 323 1.0 6.0 0.00 0.20 0.00 60 1002.4
20260505060529 56 27 1.0 6.0 0.00 0.20 0.00 60 1002.5
20260505060048 56 354 1.0 6.0 0.00 0.20 0.00 60 1002.5
20260505055529 56 297 0.0 3.0 0.00 0.20 0.00 61 1002.4
20260505055026 56 0 0.0 4.0 0.00 0.20 0.00 61 1002.5
20260505054546 57 312 0.0 4.0 0.00 0.20 0.00 60 1002.4
20260505054032 57 314 1.0 4.0 0.00 0.20 0.00 62 1002.5
20260505053531 57 10 2.0 4.0 0.00 0.20 0.00 62 1002.6
20260505053109 57 313 0.0 3.0 0.00 0.20 0.00 63 1002.6
20260505052528 57 0 1.0 3.0 0.00 0.20 0.00 64 1002.8
20260505052032 57 320 1.0 2.0 0.00 0.20 0.00 65 1002.6
20260505051538 57 229 0.0 2.0 0.00 0.20 0.00 66 1002.5
20260505051028 57 344 0.0 2.0 0.00 0.20 0.00 68 1002.4
20260505050529 57 8 0.0 3.0 0.00 0.20 0.00 69 1002.3
20260505041543 58 292 0.0 1.0 0.00 0.20 0.20 88 1001.2
20260505041031 58 0 0.0 1.0 0.00 0.20 0.20 88 1001.1
20260505040530 59 0 0.0 1.0 0.00 0.20 0.20 87 1001.1
20260505040043 59 0 0.0 2.0 0.00 0.20 0.20 87 1001.0
20260505035534 59 0 0.0 3.0 0.00 0.20 0.20 87 1000.9
20260505035031 59 231 0.0 4.0 0.00 0.20 0.20 86 1001.2
20260505034554 59 243 1.0 4.0 0.00 0.20 0.20 86 1001.1
20260505034032 59 0 0.0 4.0 0.00 0.20 0.20 86 1001.3
20260505033532 60 233 1.0 4.0 0.00 0.20 0.20 85 1001.5
20260505033051 60 233 0.0 4.0 0.00 0.20 0.20 85 1001.4
20260505032530 60 292 1.0 6.0 0.00 0.20 0.20 84 1001.2
20260505032028 60 178 2.0 7.0 0.00 0.20 0.20 84 1001.0
20260505031542 60 229 2.0 7.0 0.00 0.20 0.20 84 1001.0
20260505031032 61 221 2.0 8.0 0.00 0.20 0.20 83 1001.0
20260505030530 61 226 2.0 8.0 0.00 0.20 0.20 83 1001.0
20260505030044 61 242 3.0 7.0 0.00 0.20 0.20 82 1000.9
20260505025528 61 214 2.0 7.0 0.00 0.20 0.20 82 1000.7
20260505025030 61 264 1.0 6.0 0.00 0.20 0.20 81 1000.5
20260505024544 62 183 2.0 6.0 0.00 0.20 0.20 80 1000.4
20260505024032 62 204 2.0 6.0 0.00 0.20 0.20 80 1000.3
20260505023531 61 197 3.0 6.0 0.00 0.20 0.20 80 1000.4
20260505023047 61 216 1.0 5.0 0.01 0.20 0.20 82 1000.4
20260505022531 60 230 1.0 5.0 0.01 0.20 0.20 83 1000.3
20260505022031 60 162 1.0 6.0 0.01 0.20 0.20 84 1000.4
20260505021542 60 119 2.0 6.0 0.01 0.20 0.20 84 1000.4
20260505021032 60 132 2.0 5.0 0.01 0.20 0.20 84 1000.3
20260505020530 60 140 2.0 5.0 0.01 0.20 0.20 84 1000.1
20260505020040 60 161 3.0 6.0 0.01 0.20 0.20 84 999.8
20260505015531 60 160 1.0 6.0 0.02 0.20 0.20 84 999.6
20260505015030 60 134 1.0 8.0 0.02 0.20 0.20 82 999.2
20260505014543 61 215 2.0 8.0 0.02 0.20 0.20 81 999.1
20260505014030 61 204 3.0 10.0 0.02 0.20 0.20 79 999.1
20260505013536 61 137 3.0 10.0 0.02 0.20 0.20 79 999.2
20260505013038 61 227 2.0 6.0 0.01 0.19 0.19 80 999.4
20260505012530 60 303 2.0 6.0 0.01 0.19 0.19 83 999.6
20260505012031 60 143 2.0 7.0 0.01 0.19 0.19 83 999.6
20260505011603 60 181 3.0 11.0 0.01 0.19 0.19 84 999.5
20260505011030 60 217 4.0 14.0 0.01 0.19 0.19 84 999.6
20260505010534 61 220 4.0 14.0 0.01 0.19 0.19 83 999.8
20260505010053 61 248 5.0 14.0 0.01 0.19 0.19 81 1000.0
20260505005529 63 97 6.0 11.0 0.01 0.18 0.18 79 1000.5
20260505005029 63 219 3.0 8.0 0.01 0.18 0.18 76 1000.0
20260505004541 63 215 3.0 9.0 0.01 0.18 0.18 76 999.3
20260505004026 63 271 2.0 9.0 0.02 0.18 0.18 76 999.5
20260505003528 63 245 2.0 8.0 0.02 0.18 0.18 77 999.7
20260505003039 63 224 2.0 9.0 0.02 0.18 0.18 78 999.4
20260505002526 63 164 4.0 9.0 0.02 0.18 0.18 79 999.0
20260505002026 63 131 3.0 9.0 0.02 0.18 0.18 81 998.7
20260505001536 63 148 4.0 10.0 0.02 0.18 0.18 80 998.4
20260505001025 63 212 4.0 14.0 0.02 0.18 0.18 80 998.2
20260505000531 64 226 6.0 14.0 0.02 0.18 0.18 79 998.1
20260505000041 64 226 4.0 10.0 0.02 0.18 0.18 79 998.4
20260504235526 64 264 3.0 10.0 0.01 0.17 0.17 77 999.0
20260504235030 65 245 3.0 11.0 0.01 0.17 0.17 74 999.3
20260504234541 67 184 3.0 11.0 0.01 0.17 0.17 72 999.1
20260504234026 69 210 4.0 11.0 0.00 0.16 0.16 70 999.3
20260504233528 70 323 2.0 9.0 0.00 0.16 0.16 69 999.3
20260504233055 70 38 2.0 10.0 0.00 0.16 0.16 68 998.6
20260504232527 71 285 4.0 13.0 0.00 0.16 0.16 66 997.8
20260504232026 71 165 6.0 13.0 0.00 0.16 0.16 66 997.6
20260504231539 70 121 4.0 12.0 0.00 0.16 0.16 65 997.6
20260504231026 70 226 4.0 10.0 0.00 0.16 0.16 64 997.6
20260504230527 70 221 3.0 8.0 0.00 0.16 0.16 64 997.5
20260504230040 70 227 1.0 8.0 0.06 0.16 0.16 64 997.4
20260504225526 71 207 3.0 12.0 0.09 0.16 0.16 64 997.6
20260504225025 71 235 2.0 12.0 0.11 0.16 0.16 65 997.7
20260504224541 71 221 3.0 7.0 0.12 0.16 0.16 68 998.0
20260504224026 69 216 2.0 4.0 0.16 0.16 0.16 74 998.0
20260504223529 69 231 0.0 3.0 0.16 0.16 0.16 79 997.9
20260504223043 67 245 0.0 3.0 0.16 0.16 0.16 80 998.0
20260504222526 66 207 0.0 3.0 0.16 0.16 0.16 81 997.9
20260504222028 65 311 1.0 10.0 0.16 0.16 0.16 77 998.0
20260504221542 65 257 2.0 14.0 0.16 0.16 0.16 76 998.1
20260504221026 64 169 6.0 14.0 0.16 0.16 0.16 73 998.4
20260504220526 65 173 5.0 12.0 0.16 0.16 0.16 75 998.6
20260504220042 67 296 2.0 9.0 0.09 0.09 0.09 74 999.0
20260504215527 68 207 2.0 9.0 0.07 0.07 0.07 69 998.5
20260504215026 70 317 3.0 9.0 0.05 0.05 0.05 67 999.1
20260504214544 72 227 2.0 5.0 0.03 0.03 0.03 62 998.8
20260504214030 73 323 0.0 11.0 0.00 0.00 0.00 58 998.6
20260504213530 74 183 1.0 12.0 0.00 0.00 0.00 55 998.3
20260504213053 75 160 4.0 12.0 0.00 0.00 0.00 52 998.6
20260504212529 77 248 5.0 11.0 0.00 0.00 0.00 48 999.0
20260504212030 78 144 5.0 11.0 0.00 0.00 0.00 45 998.7
20260504211543 79 224 4.0 9.0 0.00 0.00 0.00 42 998.4
20260504211029 79 263 3.0 10.0 0.00 0.00 0.00 41 998.4
20260504210530 79 239 5.0 10.0 0.00 0.00 0.00 41 998.4
20260504210047 79 184 4.0 13.0 0.00 0.00 0.00 41 998.5
20260504205531 79 250 5.0 19.0 0.00 0.00 0.00 40 998.7
20260504205030 79 205 4.0 19.0 0.00 0.00 0.00 41 998.8
20260504204547 80 229 4.0 10.0 0.00 0.00 0.00 40 998.6
20260504204030 81 254 4.0 12.0 0.00 0.00 0.00 39 998.7
20260504203530 81 181 5.0 12.0 0.00 0.00 0.00 41 998.8
20260504203048 81 237 4.0 14.0 0.00 0.00 0.00 41 998.9
20260504202533 81 279 6.0 14.0 0.00 0.00 0.00 42 998.8
20260504202029 81 328 5.0 14.0 0.00 0.00 0.00 41 998.8
20260504201545 81 215 4.0 10.0 0.00 0.00 0.00 42 999.0
20260504201032 80 335 5.0 12.0 0.00 0.00 0.00 42 998.9
20260504200532 80 219 4.0 12.0 0.00 0.00 0.00 43 999.1
20260504200043 79 223 4.0 13.0 0.00 0.00 0.00 42 999.1
20260504195531 79 221 5.0 13.0 0.00 0.00 0.00 42 999.1
20260504195030 80 132 6.0 14.0 0.00 0.00 0.00 42 999.3
20260504194547 80 274 6.0 14.0 0.00 0.00 0.00 42 999.3
20260504194030 80 129 5.0 14.0 0.00 0.00 0.00 44 999.4
20260504193531 80 249 5.0 10.0 0.00 0.00 0.00 43 999.4
20260504193053 80 136 4.0 15.0 0.00 0.00 0.00 44 999.5
20260504192530 80 213 4.0 15.0 0.00 0.00 0.00 45 999.5
20260504192030 80 212 3.0 13.0 0.00 0.00 0.00 42 999.4
20260504191549 79 115 4.0 12.0 0.00 0.00 0.00 43 999.5
20260504191030 80 335 5.0 12.0 0.00 0.00 0.00 43 999.5
20260504190531 80 209 5.0 13.0 0.00 0.00 0.00 42 999.8
20260504190039 80 248 5.0 13.0 0.00 0.00 0.00 42 999.8
20260504185529 80 203 4.0 11.0 0.00 0.00 0.00 43 999.7
20260504185031 80 218 4.0 12.0 0.00 0.00 0.00 41 999.7
20260504184542 80 90 4.0 15.0 0.00 0.00 0.00 41 999.8
20260504184031 79 236 4.0 15.0 0.00 0.00 0.00 41 999.7
20260504183530 79 63 4.0 11.0 0.00 0.00 0.00 42 999.7
20260504183044 79 233 6.0 11.0 0.00 0.00 0.00 39 999.8
20260504182529 79 262 4.0 11.0 0.00 0.00 0.00 41 999.7
20260504182030 79 115 4.0 11.0 0.00 0.00 0.00 42 999.8
20260504181545 79 131 5.0 12.0 0.00 0.00 0.00 39 1000.0
20260504181030 79 247 5.0 12.0 0.00 0.00 0.00 42 999.9
20260504180531 79 259 4.0 13.0 0.00 0.00 0.00 42 1000.0
20260504180039 79 151 4.0 13.0 0.00 0.00 0.00 40 1000.1
20260504175530 79 296 5.0 11.0 0.00 0.00 0.00 42 1000.1
20260504175031 79 330 5.0 11.0 0.00 0.00 0.00 43 1000.1
20260504174545 78 168 3.0 10.0 0.00 0.00 0.00 45 1000.1
20260504174030 78 213 4.0 10.0 0.00 0.00 0.00 39 1000.2
20260504173529 78 193 5.0 11.0 0.00 0.00 0.00 40 1000.3
20260504173044 78 87 4.0 20.0 0.00 0.00 0.00 44 1000.4
20260504172529 77 210 5.0 20.0 0.00 0.00 0.00 45 1000.5
20260504172030 77 178 5.0 20.0 0.00 0.00 0.00 44 1000.8
20260504171548 77 207 3.0 10.0 0.00 0.00 0.00 47 1000.6
20260504171030 76 226 4.0 10.0 0.00 0.00 0.00 49 1000.9
20260504170530 76 214 3.0 10.0 0.00 0.00 0.00 49 1001.0
20260504151033 71 178 4.0 10.0 0.00 0.08 0.00 55 1002.5
20260504150529 71 194 3.0 11.0 0.00 0.08 0.00 58 1002.5
20260504141029 66 181 2.0 6.0 0.00 0.08 0.00 68 1003.2
20260504140532 65 215 2.0 6.0 0.00 0.08 0.00 67 1003.3